アトラス彗星

C/2018 L2 ( ATLAS )

English version
Home page
Updated on September 17, 2019

---------------------------------------------------------------------

・ プロフィール

発見日 2018年6月6日
発見光度 15.6等
発見者 Asteroid Terrestrial-impact Last Alert System (ATLAS) search program

・ 写真集

・ 軌道要素

Epoch 2018 Nov. 18.0 TT = JDT 2458440.5
T 2018 Dec. 2.57803 TT                                  Williams
q   1.7116858            (2000.0)            P               Q
z  +0.0041075      Peri.   56.22929     +0.03219928     +0.56732469
 +/-0.0000011      Node   243.01864     -0.89265465     +0.38665877
e   0.9929692      Incl.   67.42374     +0.44958968     +0.72707475
From 564 observations 2018 June 4-2019 July 10, mean residual 0".5.

・ 星図

・ 光度変化

        m1 = 3.0 + 5 logΔ + 25.0 log r  [ ,0]  (              〜2018年12月 2日)
        m1 = 5.1 + 5 logΔ + 16.0 log r  [0, ]  (2018年12月 2日〜              )

---------------------------------------------------------------------

軌道要素はM.P.E.C. 2019-Q135に掲載されたものです。
星図はステラナビゲータ Ver.10 (アストロアーツ) で作成したものです。
光度グラフはComet for Windowsで作成したものです。

---------------------------------------------------------------------

Copyright(C) Seiichi Yoshida (comet@aerith.net). All rights reserved.